Wind_Gust
18 18 17 16 16 15 14 14 14 14 14 14 14 14 13 14 14 14 13 14 14 14 14 14 14 14 15 14 15 16 11 25 24 22 24 32 8 10 10 9 11 14 10 20 23 25 26 25 25 22 24 22 25 26 21 24 21 20 27 26 26 25 24 15 16 22 18 14 14 12 11 15 17 13 15 19 20 18 19 20 19 22 23 24 27 29 30 26
18 18 17 17 16 16 15 14 14 14 14 14 14 14 14 14 14 14 14 14 14 15 15 14 15 15 15 15 15 15 19 23 25 26 34 14 10 9 10 6 10 18 15 25 25 28 26 26 25 24 26 26 20 26 21 28 23 26 26 28 28 23 22 12 13 15 17 15 12 13 10 12 16 12 14 16 18 24 26 24 22 22 23 24 24 25 27 25
18 18 18 17 17 16 16 15 15 14 14 14 14 15 15 14 15 14 14 14 15 15 15 15 14 15 14 14 15 12 22 25 24 31 27 18 16 13 8 8 17 18 26 25 24 26 27 24 24 25 26 25 25 26 22 26 26 26 26 28 30 22 19 10 12 10 12 15 10 11 13 15 16 17 18 20 20 23 24 27 26 22 24 24 25 25 25 24
18 18 18 18 17 17 16 15 15 14 14 14 14 14 15 15 16 15 14 14 15 15 15 16 15 15 15 15 11 21 22 24 27 18 21 12 16 15 10 11 19 22 28 23 21 26 23 22 23 26 26 28 24 26 26 25 28 24 31 30 25 23 25 15 13 12 9 10 11 10 9 15 16 10 22 21 26 23 18 22 23 21 25 26 25 25 23 24
18 18 18 18 18 17 17 16 15 14 14 14 14 15 15 15 16 15 15 15 14 14 15 16 17 16 16 15 13 22 20 23 20 20 17 13 13 14 12 13 17 27 26 21 20 23 23 24 24 25 28 30 25 24 25 25 26 23 29 27 28 15 17 11 11 11 8 8 12 10 17 14 15 16 16 18 24 26 30 20 21 22 26 27 27 25 24 24
18 18 18 18 18 18 18 17 16 15 15 14 15 15 15 15 15 15 14 15 15 15 15 16 17 17 17 14 23 20 19 11 18 16 7 12 14 15 13 13 18 25 24 19 21 21 22 22 25 28 31 26 25 29 24 27 24 31 26 25 26 21 17 12 13 11 10 16 19 15 16 13 17 12 12 13 17 17 17 17 21 25 20 25 25 25 23 24
18 18 18 17 18 18 18 17 16 15 14 14 14 14 15 15 15 15 14 14 15 16 15 15 16 17 16 15 28 20 23 29 13 16 15 14 15 15 14 13 16 24 22 19 22 24 24 24 25 24 26 27 26 31 24 25 25 28 30 22 26 19 21 11 14 10 15 14 14 18 12 16 12 19 16 16 15 14 14 15 14 27 20 23 24 22 23 23
18 18 18 18 18 18 18 18 17 16 15 14 14 14 14 14 14 14 14 15 14 15 15 15 16 16 15 24 20 22 23 20 20 18 15 16 18 19 16 21 25 25 23 22 21 22 21 26 26 25 28 27 22 26 23 26 27 29 34 23 15 19 21 20 17 17 15 16 16 13 17 19 15 17 11 17 14 14 14 13 17 26 19 20 21 22 21 22
18 18 18 18 18 18 18 18 17 17 16 14 14 14 14 14 15 14 14 14 14 15 14 15 15 15 11 20 21 24 18 18 14 20 23 23 22 22 24 28 27 24 23 22 20 19 20 23 25 25 24 26 23 23 26 26 30 29 26 25 18 19 17 19 19 20 17 18 17 18 21 18 19 10 19 19 15 13 11 13 17 25 22 22 20 21 21 21
17 18 18 18 18 18 18 18 18 17 16 16 14 14 14 14 14 14 14 14 13 14 14 14 16 12 20 20 22 26 14 9 16 19 19 22 23 24 26 22 27 24 23 21 19 20 22 19 23 22 26 22 23 24 22 25 21 17 27 27 24 18 19 19 22 21 20 22 18 22 21 23 18 17 26 22 18 14 14 16 20 24 23 21 21 21 20 20
18 18 18 18 18 18 18 18 18 17 17 16 15 14 14 14 14 14 14 14 14 14 14 14 13 15 21 18 23 21 11 10 11 16 19 22 24 25 23 19 21 24 21 19 19 19 19 20 17 17 21 27 19 21 26 26 26 12 19 22 27 21 21 19 20 20 21 25 19 20 23 25 20 21 28 24 20 17 17 17 20 25 26 24 21 21 20 21
18 18 18 18 18 18 18 18 18 17 17 17 15 14 13 13 14 14 14 14 14 14 12 12 13 21 21 23 23 21 13 11 11 15 18 22 25 23 19 16 18 20 18 18 19 18 19 19 16 19 21 18 27 20 30 21 26 20 13 23 21 23 30 24 25 22 20 23 23 22 24 28 22 24 29 17 18 20 18 18 19 20 23 21 21 21 21 22
18 18 18 19 19 19 18 19 18 18 17 17 16 15 13 13 14 14 14 14 13 13 11 10 13 20 19 23 24 17 10 10 11 9 16 20 21 20 16 15 19 17 17 18 17 19 17 16 17 23 22 18 19 26 11 26 22 22 20 23 24 27 31 28 26 24 25 25 21 22 33 29 29 27 29 23 19 20 21 21 20 20 20 21 20 20 20 20
19 18 18 19 19 19 19 19 18 18 17 17 16 15 14 13 14 14 14 14 14 12 12 11 20 20 19 24 25 12 10 12 12 14 17 20 20 19 16 16 17 15 12 17 15 15 16 17 17 22 17 23 24 20 15 19 21 30 23 23 29 27 30 27 33 27 27 21 18 21 28 26 29 32 32 24 22 21 22 21 20 21 20 21 20 19 20 19
19 19 19 19 19 20 19 20 19 18 18 17 17 16 16 14 13 14 13 13 14 14 11 10 20 18 20 27 18 17 9 13 18 19 20 21 20 19 19 18 18 17 15 14 15 12 17 16 19 21 23 23 20 17 24 24 25 26 30 31 28 29 24 28 31 29 29 27 23 22 28 27 25 34 34 29 25 24 23 22 21 21 21 21 20 20 21 21
19 19 19 19 19 19 20 19 19 19 18 19 18 18 16 15 13 13 13 14 11 9 19 19 20 21 24 30 15 14 17 22 24 22 22 20 19 18 18 19 16 17 14 16 14 17 15 17 24 22 22 21 22 22 23 26 27 29 31 22 28 29 31 24 27 23 27 27 26 28 27 25 32 28 33 25 25 25 24 22 21 21 21 22 19 20 20 22
21 20 19 19 19 20 20 20 19 19 19 17 18 16 14 13 12 10 9 11 16 18 18 17 11 17 19 19 14 18 19 20 16 25 22 20 18 14 18 19 21 19 19 15 17 18 19 21 19 20 22 22 23 25 27 26 24 28 29 29 24 28 30 28 28 26 27 28 26 29 32 26 19 21 22 21 22 23 25 22 21 22 22 21 20 21 22 22
21 21 20 20 19 20 20 20 20 19 19 18 17 14 17 7 10 12 12 14 18 20 19 19 16 18 36 31 21 20 16 18 20 21 20 19 17 14 18 23 18 19 20 21 17 23 23 26 23 23 21 23 25 27 29 25 25 24 25 27 29 25 23 28 28 27 27 26 25 26 28 29 20 22 21 21 22 23 23 23 22 22 22 23 20 21 21 22
21 21 21 19 20 20 20 20 20 19 19 18 25 17 14 13 15 18 19 17 19 16 18 23 20 24 25 18 14 13 14 16 13 16 22 19 18 18 18 18 18 24 26 24 24 25 26 24 20 25 26 26 27 28 26 23 21 24 23 25 27 23 26 31 20 21 23 26 29 25 27 28 29 19 22 20 20 23 23 22 22 22 23 22 22 21 21 22
22 21 21 20 21 20 20 20 19 19 18 18 19 19 18 17 18 16 21 20 25 25 28 19 29 25 19 20 17 15 18 16 20 21 19 20 22 21 22 21 23 26 24 26 27 26 21 25 25 25 24 22 21 23 22 21 21 19 19 22 27 25 22 24 19 20 21 22 25 27 24 23 25 26 22 21 20 22 24 23 23 23 23 24 23 22 22 21
22 21 21 21 20 21 20 20 18 16 10 22 19 18 20 22 24 17 13 22 30 30 26 24 24 24 24 12 11 21 23 21 20 22 22 21 20 22 26 25 28 28 26 21 23 18 19 25 24 21 21 18 20 24 16 13 13 17 14 16 22 21 25 25 24 21 17 18 19 22 23 25 27 27 22 20 20 23 25 24 23 24 23 22 22 22 22 21
22 22 21 21 21 21 21 20 19 16 13 19 18 21 21 17 17 17 21 33 21 23 25 26 22 26 22 19 14 12 16 24 24 20 23 24 25 30 25 27 28 28 23 24 21 21 24 26 21 20 15 9 10 10 10 13 14 20 22 19 22 24 22 22 14 17 18 21 23 21 26 25 28 28 19 20 20 22 24 23 24 25 24 23 23 21 21 21
22 22 22 21 21 22 21 22 17 15 23 19 21 23 24 15 12 14 19 30 37 29 27 25 27 25 24 20 21 16 19 24 28 25 31 25 24 30 26 28 26 25 26 23 23 21 22 25 20 20 13 14 13 13 12 16 19 21 24 24 25 19 27 24 21 19 18 22 21 23 23 25 19 14 18 19 21 20 21 24 23 23 22 22 22 22 22 23
22 22 22 22 22 22 24 21 23 19 22 22 22 24 21 18 16 17 22 24 29 26 25 20 20 22 24 25 27 23 25 25 22 27 26 31 27 21 24 25 25 26 27 25 24 22 23 15 24 18 14 16 18 17 18 21 23 23 23 25 24 23 24 23 18 22 17 18 19 19 22 25 21 22 22 18 16 18 22 23 23 23 22 20 18 19 21 22
22 22 22 23 23 25 24 26 18 17 14 19 25 24 20 15 14 16 22 32 35 37 15 13 12 17 18 16 17 32 25 23 23 20 32 28 27 25 23 25 28 27 22 24 24 26 26 16 9 12 17 19 19 21 23 22 24 24 23 24 21 18 19 17 11 17 21 25 25 25 29 29 25 26 28 25 25 23 21 23 24 22 20 19 20 20 20 20
23 22 22 22 24 25 28 19 12 11 15 22 18 12 11 11 13 15 20 24 24 21 21 21 18 24 19 23 21 26 21 32 24 22 29 29 24 26 21 27 29 24 22 21 26 27 21 19 16 17 19 19 21 22 20 23 26 23 28 26 25 23 18 15 19 21 24 23 24 27 30 18 23 27 28 27 26 27 23 22 22 21 22 21 21 21 21 20
23 23 23 23 21 23 23 9 21 20 22 15 13 9 11 14 11 12 21 22 25 25 18 26 22 23 21 21 27 24 25 31 26 21 27 27 29 22 23 23 27 22 16 18 24 30 23 12 14 16 18 22 22 25 22 26 28 28 12 27 24 21 17 18 20 22 21 8 12 20 29 24 25 27 27 27 26 27 25 23 26 23 19 19 21 20 19 20
24 23 23 22 20 14 19 28 23 20 21 14 12 12 14 12 12 13 18 15 18 18 20 22 14 20 17 22 25 35 15 25 34 31 23 26 26 25 28 20 22 20 15 17 24 15 20 19 19 20 18 24 25 21 17 23 32 18 13 19 24 24 19 20 25 24 18 15 23 24 25 29 21 23 24 26 26 26 27 25 27 25 25 23 19 19 22 23
24 24 23 23 23 23 24 21 18 24 17 15 15 16 16 12 14 22 19 14 18 24 22 15 17 20 15 22 29 30 15 24 20 29 25 24 27 21 28 23 18 21 21 22 25 17 22 22 23 21 24 24 21 24 23 24 32 14 17 16 20 22 22 21 24 24 17 22 20 22 25 28 23 24 24 21 25 26 24 22 24 23 24 24 21 18 15 24
25 22 24 22 24 22 22 22 25 24 21 19 17 16 13 14 19 18 19 20 10 19 20 19 22 22 21 27 28 29 23 22 17 31 29 32 27 20 24 15 19 22 24 25 30 16 16 8 13 28 28 21 14 14 11 22 25 14 15 20 20 21 20 20 23 22 20 24 24 19 22 26 24 23 25 29 31 23 20 23 22 26 19 18 18 18 21 22
24 24 23 19 21 17 16 23 21 19 16 12 14 16 16 19 25 23 16 19 15 15 17 21 21 20 26 26 28 27 25 22 22 25 29 26 28 24 20 24 21 19 19 22 25 24 17 21 22 24 23 13 12 14 17 16 21 18 23 25 23 24 23 22 25 22 21 23 21 20 19 20 25 22 21 22 20 19 22 22 21 20 21 25 21 18 27 22
24 24 22 24 25 22 21 12 18 12 12 14 16 18 22 24 27 31 26 16 24 22 21 22 18 23 24 23 21 33 34 22 24 31 30 31 26 31 28 24 27 25 26 24 26 21 22 25 21 23 20 18 18 20 23 22 20 23 23 26 25 21 21 25 23 24 27 22 17 19 20 21 28 17 15 18 19 20 16 18 20 17 15 13 15 17 22 21
26 24 28 27 20 22 27 28 20 17 15 15 17 19 27 24 30 26 31 20 18 16 20 13 18 20 21 22 25 28 26 24 25 27 26 30 26 27 25 29 23 27 21 23 22 26 24 20 24 23 19 23 22 26 25 26 26 27 28 26 25 23 22 19 24 21 24 23 12 19 13 24 16 17 24 19 17 18 18 18 18 18 21 23 22 23 25 23
28 26 24 11 19 23 17 14 13 11 10 13 17 23 25 26 28 13 27 31 19 15 11 22 15 16 19 26 21 24 33 24 25 32 29 29 30 26 29 30 25 27 27 16 33 26 22 30 31 26 27 23 27 28 18 19 25 30 24 25 21 20 25 20 25 23 21 18 20 18 17 23 24 20 13 22 22 20 23 22 23 23 25 25 27 29 30 24
31 28 18 16 15 20 19 17 12 11 13 17 23 28 29 31 23 25 28 27 32 14 16 13 20 20 23 24 20 28 26 32 26 25 30 30 31 30 29 29 29 23 24 21 21 23 24 23 21 31 19 27 27 27 23 20 23 27 27 24 27 21 18 25 11 16 14 14 17 19 21 13 18 24 18 17 17 18 21 24 26 22 27 27 30 30 26 24
24 13 15 16 17 13 17 16 13 13 16 22 29 30 32 28 26 24 28 18 25 29 21 20 21 25 24 26 19 21 29 30 30 28 29 30 27 32 25 28 33 25 25 27 15 23 21 27 16 30 25 19 26 26 26 21 26 20 27 30 22 16 21 18 13 13 7 12 19 11 21 20 26 26 19 19 18 18 18 18 19 19 21 22 23 23 22 21
16 9 16 15 12 10 10 14 16 17 18 25 29 29 28 30 27 23 15 15 17 17 22 26 29 30 22 26 27 25 27 28 28 35 31 27 33 30 30 26 23 29 27 22 19 17 19 19 17 20 28 25 20 19 23 24 24 24 32 22 15 12 18 16 15 16 18 23 20 18 16 21 21 22 26 24 18 17 18 17 20 20 19 21 21 23 24 24
16 13 13 10 15 11 10 14 16 18 23 26 29 15 21 32 24 30 14 14 14 20 26 25 23 19 24 26 26 24 23 32 22 32 29 27 28 22 27 32 28 27 26 24 22 16 19 22 21 22 22 25 21 19 23 21 21 27 18 16 28 21 21 20 17 18 14 20 22 18 19 24 24 18 24 22 22 19 19 19 18 17 19 21 22 24 25 24
17 16 18 14 14 11 11 14 18 21 24 30 27 27 32 32 22 25 17 18 18 20 28 23 27 21 21 22 22 22 28 32 26 30 32 34 31 12 25 21 24 23 21 23 30 19 14 21 19 16 23 21 25 27 29 26 26 26 20 23 19 22 17 17 23 19 22 17 16 16 21 21 18 16 19 20 23 22 20 20 17 18 19 21 21 23 24 23
18 20 13 12 13 11 12 16 19 22 28 29 27 31 20 31 28 19 17 13 22 23 22 24 21 19 18 19 20 21 21 20 19 19 28 20 30 13 18 14 18 25 19 18 21 20 20 18 22 14 20 15 29 33 30 27 26 31 31 29 25 24 11 19 15 24 22 20 19 19 21 19 19 16 17 21 23 22 20 22 21 21 21 21 21 21 21 20
11 19 17 12 12 13 14 17 22 27 28 25 24 26 24 29 20 21 22 18 24 17 25 20 19 21 17 24 23 20 19 25 27 28 23 18 23 21 15 18 18 18 20 18 20 17 20 20 22 23 23 28 25 24 28 31 27 28 30 30 28 23 24 21 25 21 25 24 20 16 21 19 14 18 14 27 25 24 25 23 24 25 22 20 20 19 20 22
21 15 15 12 9 12 16 19 25 21 26 25 26 29 28 11 20 18 21 19 19 26 20 24 17 20 20 17 19 19 24 23 24 24 25 22 19 24 18 17 16 15 24 23 25 14 13 14 22 26 26 23 18 14 15 13 13 20 23 29 30 26 25 27 25 20 21 25 21 20 17 13 13 14 15 18 20 21 21 20 21 22 21 19 20 19 20 20
15 15 12 10 8 13 18 19 19 21 23 23 18 14 18 15 19 25 23 18 20 23 26 21 20 23 21 22 16 20 16 25 20 20 16 20 17 18 19 14 11 16 22 19 20 14 6 17 21 26 20 19 17 16 12 16 18 23 25 21 21 28 25 27 24 16 19 15 23 20 21 16 11 10 12 14 19 19 20 20 20 20 19 20 19 18 19 19
11 13 13 14 10 12 15 16 17 16 22 23 13 20 17 21 19 23 26 17 23 22 26 23 19 20 22 16 17 20 14 18 16 19 19 26 22 14 21 18 16 16 16 16 19 17 19 14 17 15 23 26 25 21 23 17 22 31 28 27 28 26 24 20 17 13 17 16 17 17 25 14 11 10 15 18 18 20 20 19 21 22 20 20 20 19 19 19
14 12 12 14 11 13 15 16 16 13 18 14 16 20 21 20 16 16 18 22 20 16 12 18 18 12 20 17 23 20 19 17 18 16 16 15 22 14 15 16 16 19 12 17 7 21 17 11 14 21 22 26 29 25 22 23 27 28 25 22 14 23 25 23 20 21 25 21 22 22 14 16 14 12 17 21 19 20 19 19 20 21 21 22 22 21 21 20
15 11 15 9 12 11 11 12 12 18 13 14 10 13 15 19 11 14 18 12 12 13 18 17 13 15 20 18 20 22 22 17 21 15 18 21 14 12 10 13 14 17 14 12 16 18 17 16 21 21 20 19 15 21 20 26 21 32 24 21 21 17 21 22 23 23 28 20 26 24 18 21 18 17 20 18 22 20 21 22 23 23 21 21 20 21 20 20
13 15 14 15 12 13 12 18 18 15 10 12 10 10 16 16 13 14 11 19 12 16 14 15 16 14 17 18 18 20 21 21 19 21 17 17 12 13 11 13 15 20 10 15 14 18 14 16 17 17 13 10 12 16 22 27 27 20 16 16 14 14 14 19 22 28 17 17 23 21 26 24 21 20 19 17 17 17 18 19 20 21 21 21 21 20 17 21
13 12 13 14 16 16 13 15 19 15 15 13 12 13 13 13 13 9 12 13 10 12 16 12 17 17 17 17 15 20 17 20 20 16 15 15 11 14 18 17 14 13 16 19 18 18 18 16 18 15 14 12 13 15 16 19 22 20 15 13 13 12 12 12 13 14 12 19 14 14 16 23 21 20 21 20 15 16 17 17 18 19 20 21 21 22 22 21
14 11 15 12 12 15 17 14 14 15 17 21 13 14 10 9 12 13 12 12 14 9 15 4 14 12 15 16 15 18 13 21 13 11 13 15 14 16 16 15 16 21 19 16 19 14 18 12 19 18 16 12 11 11 16 15 14 13 15 16 16 15 17 15 16 16 15 18 20 26 23 22 16 17 15 15 13 13 17 16 18 19 17 19 19 19 19 19
18 16 12 10 13 15 14 13 15 15 17 22 11 21 17 14 14 14 18 13 8 11 15 10 12 12 11 11 12 13 17 16 14 7 12 15 13 15 15 13 15 20 22 18 16 14 20 14 15 16 18 12 12 10 9 10 13 14 16 16 19 15 18 19 17 19 15 20 20 23 23 20 15 15 16 15 15 13 16 21 19 15 15 16 17 17 17 18
15 13 13 16 14 16 11 14 13 16 16 19 17 17 16 17 11 13 20 18 17 15 16 14 14 11 17 18 17 17 16 13 12 12 9 13 13 13 15 13 15 14 18 18 15 16 15 11 17 18 15 14 17 16 13 10 9 14 15 15 14 17 13 16 17 16 17 15 16 20 18 16 17 16 19 19 19 17 17 18 19 20 21 19 16 17 17 18
12 9 11 18 12 9 13 17 15 12 18 12 7 9 14 18 17 12 11 18 20 21 19 17 13 12 15 16 19 18 15 13 12 13 13 12 12 10 12 12 12 11 13 18 15 20 16 18 18 17 18 16 17 17 19 11 8 14 18 18 13 12 13 13 16 17 17 15 12 9 16 18 17 17 20 20 20 20 19 18 20 21 25 27 26 20 19 18
Wind_Speed
14 13 13 13 12 11 11 11 10 11 11 11 11 11 11 11 11 11 10 11 11 11 11 11 12 12 12 11 12 13 10 12 13 11 13 18 4 8 7 6 7 11 6 10 13 15 15 14 14 13 11 9 10 11 9 12 8 7 9 9 11 10 11 5 5 6 5 4 5 4 3 6 7 5 4 7 9 9 9 8 10 12 11 12 16 18 19 16
14 14 13 13 13 12 12 11 11 11 11 11 11 11 11 11 11 11 11 11 11 12 12 11 12 12 12 12 12 12 12 13 14 15 20 2 7 7 7 4 6 14 10 13 15 16 16 15 14 14 12 10 9 11 11 9 10 9 9 10 11 9 9 5 4 3 5 2 5 5 2 4 6 5 4 6 10 10 14 10 11 11 12 14 15 16 17 16
14 14 14 14 14 13 12 12 11 11 11 11 11 11 12 12 11 11 11 11 11 12 12 12 12 12 11 12 12 10 13 14 13 18 15 15 13 11 7 5 11 13 15 14 14 15 15 14 14 14 12 10 10 11 12 9 11 11 10 11 12 11 5 1 4 3 4 6 1 4 5 7 7 8 8 7 1 10 11 11 9 9 11 14 15 16 16 15
14 14 14 14 13 13 13 12 11 11 11 11 11 11 12 12 12 12 11 11 11 12 12 13 12 12 12 12 9 11 12 13 13 4 11 10 13 13 8 8 13 15 17 14 11 14 13 12 13 14 11 12 10 13 11 9 10 9 12 12 11 12 13 6 4 5 2 3 3 3 1 6 7 2 10 11 11 2 6 13 12 12 13 15 15 16 14 15
13 14 14 14 14 14 13 13 12 11 11 11 11 12 12 12 12 12 12 12 12 11 12 13 14 14 13 12 11 11 10 10 7 10 9 11 11 10 9 11 13 16 16 12 11 13 13 13 13 13 12 11 12 12 12 13 11 8 14 15 16 4 6 3 2 3 1 2 5 3 8 5 7 7 7 7 10 11 13 11 13 14 13 15 17 15 14 15
14 14 14 13 13 13 14 13 12 12 11 11 11 12 12 11 12 12 11 12 12 12 12 12 13 14 14 12 11 10 7 1 6 6 6 10 10 11 9 10 13 15 14 11 10 12 12 13 13 12 12 12 13 12 12 14 13 12 13 14 14 11 6 4 5 4 4 7 10 7 6 4 8 5 4 5 8 5 8 8 14 8 11 12 14 15 15 15
14 14 14 14 13 13 13 14 13 12 11 11 11 11 11 12 11 11 11 11 12 12 12 12 13 14 13 13 14 10 10 11 3 7 12 11 12 11 9 9 11 14 13 10 12 11 12 13 14 13 12 13 15 13 13 14 14 14 11 10 15 11 10 4 4 4 6 7 5 8 5 7 5 10 7 8 8 6 4 8 6 12 12 9 13 14 15 15
14 14 14 13 13 13 13 13 13 13 12 11 11 10 11 11 11 11 11 11 11 12 12 12 13 13 12 12 9 9 10 8 10 10 11 13 12 12 10 11 14 14 13 12 12 13 12 15 14 12 13 12 10 13 12 15 16 14 15 13 7 10 11 11 8 8 7 8 7 6 8 10 7 8 4 8 6 5 7 5 10 13 8 10 12 13 13 13
13 13 14 14 14 13 14 14 13 13 13 11 11 11 10 11 11 11 11 11 11 11 11 12 12 12 8 9 9 10 6 7 7 12 14 14 14 13 14 12 16 14 12 11 11 10 11 12 14 13 10 13 13 12 14 14 12 14 14 14 8 9 9 10 10 11 9 6 8 9 12 10 10 3 8 10 8 6 3 6 9 14 12 11 11 12 12 13
14 14 13 14 14 14 14 13 14 13 13 13 11 11 11 11 11 11 11 11 10 11 11 11 13 10 12 8 11 11 4 2 8 10 12 14 14 14 17 12 16 14 12 11 10 11 12 8 12 12 15 12 12 12 13 15 8 8 16 16 14 9 10 10 12 12 10 11 10 11 12 12 10 5 9 13 9 7 6 7 11 9 7 8 11 12 12 12
14 14 13 13 14 14 14 14 14 14 13 13 12 11 11 11 11 11 11 11 11 11 11 10 11 11 10 9 10 8 3 3 3 7 11 13 14 14 14 11 13 12 12 10 10 10 10 11 8 6 8 9 9 10 13 9 15 3 9 12 16 12 11 10 12 11 10 12 10 10 13 15 12 9 12 13 12 9 9 8 11 13 12 11 12 12 12 11
14 14 14 14 14 14 14 14 14 14 13 13 12 11 11 11 11 11 11 11 11 11 10 9 11 8 10 11 9 7 5 3 3 6 9 13 13 12 11 8 10 11 9 9 10 8 10 10 8 8 5 7 11 8 15 12 14 12 6 11 11 13 13 14 13 12 11 9 12 12 13 16 11 13 18 4 10 11 10 10 10 11 13 12 11 11 11 11
14 14 14 14 14 15 14 14 14 14 14 13 13 12 11 11 11 11 11 11 10 10 9 8 9 7 9 10 10 6 1 2 4 2 7 9 10 10 8 7 10 9 9 9 8 9 9 7 8 11 11 6 8 7 4 13 12 10 10 9 12 13 15 17 15 14 14 11 12 12 12 13 14 15 18 12 10 10 11 11 10 9 9 10 11 10 10 11
15 14 14 15 15 15 15 14 14 14 14 14 13 12 11 10 11 11 11 11 11 9 9 9 9 8 8 10 9 4 4 4 5 7 9 10 11 10 8 8 8 7 4 8 8 6 8 7 9 12 8 9 9 9 6 5 10 12 11 10 11 11 12 16 15 16 16 11 10 11 11 11 16 19 19 14 14 11 12 12 11 10 9 10 10 10 10 11
15 15 15 15 15 15 15 15 15 14 14 14 14 13 13 11 10 11 10 10 11 11 9 8 8 6 8 9 9 9 6 4 9 10 10 11 11 9 10 9 9 9 7 7 6 4 7 8 9 9 8 12 10 5 10 10 10 11 10 13 12 12 9 16 18 18 15 12 13 12 11 11 13 18 22 18 15 14 13 12 12 11 9 10 9 9 11 11
16 15 15 15 15 15 15 15 15 15 14 15 15 15 13 12 10 10 10 11 9 6 8 9 8 9 11 12 3 8 8 12 13 12 11 11 10 9 9 10 8 9 6 7 5 5 5 8 11 9 10 11 11 8 9 9 10 11 13 11 12 12 14 11 16 13 16 12 15 16 10 11 17 16 21 16 15 15 14 12 12 11 12 11 10 9 9 11
17 16 15 15 15 15 15 15 15 15 15 14 15 13 11 11 10 8 7 8 8 8 7 5 2 6 7 5 2 8 8 10 8 14 12 10 10 5 8 10 10 10 10 7 8 7 9 9 8 8 10 8 10 10 11 10 10 10 12 12 11 15 14 11 15 15 16 17 13 17 14 14 3 11 9 11 12 14 14 13 12 11 10 10 9 10 11 11
17 17 16 15 15 16 15 16 16 15 15 15 14 12 9 6 7 8 8 7 6 7 7 7 6 6 13 14 10 10 7 9 8 10 12 9 9 5 8 9 9 10 10 10 8 11 10 9 9 9 8 9 11 11 12 10 10 10 11 12 13 13 13 15 11 14 16 16 12 14 16 17 8 11 10 12 12 12 13 12 12 12 11 10 10 10 12 11
17 17 17 16 15 16 16 16 16 16 15 15 21 14 11 10 5 7 6 6 6 5 6 8 7 8 10 8 6 5 5 6 6 7 12 10 9 8 9 9 9 12 11 11 10 14 10 9 8 10 11 11 12 13 11 12 11 13 12 11 13 10 11 13 10 11 13 14 15 14 12 15 17 10 12 11 10 11 13 12 11 11 12 11 10 10 10 11
17 17 17 16 17 16 16 16 15 16 14 12 8 5 6 5 6 4 8 9 12 13 16 7 13 13 10 10 6 6 9 7 9 11 10 10 9 11 12 10 11 12 11 10 12 13 8 10 10 10 10 11 13 13 13 9 12 10 9 12 13 12 10 13 10 11 11 11 13 15 13 12 14 15 12 11 11 12 14 13 12 12 11 12 12 11 11 11
17 16 17 17 17 17 16 16 15 14 7 10 9 7 6 8 11 4 2 10 17 19 15 14 14 13 11 4 3 11 8 10 11 11 11 10 11 11 11 11 12 12 12 11 10 8 8 10 11 11 12 10 11 13 10 6 7 8 6 6 9 11 11 13 13 12 6 8 8 11 13 15 12 15 12 11 11 13 14 13 13 12 13 11 12 12 11 11
17 17 17 17 17 17 17 16 15 13 11 8 7 8 9 7 7 6 7 12 11 13 16 16 13 14 11 10 6 5 7 9 13 11 11 13 12 13 13 13 14 12 12 12 10 8 9 11 10 12 8 2 1 5 2 6 6 11 9 7 9 9 11 13 6 7 7 9 10 11 14 12 15 18 10 11 11 10 13 13 13 15 14 12 12 11 11 11
17 17 17 17 17 18 17 18 14 12 9 7 8 12 10 7 4 4 8 11 16 16 16 14 16 15 13 9 9 8 10 12 12 14 14 14 13 15 12 12 13 12 12 13 9 8 9 10 12 11 6 7 6 6 6 8 9 9 10 10 9 7 12 7 7 9 9 7 9 13 11 11 11 5 9 10 11 10 12 14 14 13 12 12 12 11 11 12
17 17 18 17 18 18 20 17 19 12 9 11 12 12 11 8 7 8 10 9 12 14 13 10 11 11 13 11 11 12 14 9 10 16 14 14 13 11 10 14 14 12 11 13 12 9 10 5 14 11 7 8 9 8 9 9 10 11 12 12 10 11 12 9 5 11 9 10 11 10 8 10 8 9 8 8 7 10 12 13 13 12 12 11 9 9 10 12
18 18 17 19 18 20 20 21 9 7 6 9 12 13 10 7 6 7 9 10 11 13 7 6 4 7 7 6 8 13 13 10 13 9 15 15 14 10 10 10 11 12 12 14 13 13 14 6 3 2 6 10 10 10 11 10 10 10 14 14 12 11 8 9 3 8 7 10 12 12 9 11 12 14 12 11 10 11 10 12 14 12 11 10 10 10 10 9
18 18 18 18 20 20 22 9 3 2 5 8 8 2 2 3 4 7 7 7 9 2 8 9 6 7 5 11 9 12 11 13 13 9 15 14 13 12 7 10 9 11 13 10 11 8 8 10 8 9 9 10 12 11 11 13 11 10 11 15 16 14 11 7 9 10 10 8 10 14 13 4 9 13 14 13 14 15 11 12 12 11 10 8 10 9 9 9
18 18 19 18 17 19 10 1 10 10 10 3 4 0 3 4 4 5 6 6 10 7 7 9 9 5 7 10 13 12 11 11 10 10 15 13 15 10 11 9 11 9 5 7 6 10 10 5 6 8 10 11 10 11 11 13 12 10 4 16 14 12 6 8 9 10 8 2 4 11 11 9 8 11 15 16 14 16 15 11 10 9 8 10 9 9 5 6
19 18 18 18 16 11 7 11 11 8 10 6 3 4 5 4 4 4 5 4 3 6 6 8 3 6 7 11 15 15 5 11 14 14 13 14 15 12 12 10 10 10 7 6 10 6 12 9 8 9 10 10 10 10 10 13 13 4 3 9 14 14 10 10 11 10 7 5 9 9 13 10 4 5 14 15 14 15 15 13 13 11 11 7 7 8 12 12
20 19 19 18 18 19 12 8 8 12 7 6 6 7 4 5 6 6 4 6 2 4 5 4 3 9 6 11 15 17 5 10 8 15 14 14 15 8 11 12 9 11 11 10 10 7 8 12 12 11 11 9 10 13 13 13 14 6 8 8 10 12 12 11 10 11 6 8 8 8 12 9 8 10 10 10 13 14 13 13 14 10 13 12 10 9 6 12
20 18 19 18 16 11 8 10 11 13 10 9 7 7 6 6 6 7 4 8 1 5 8 6 9 10 11 13 13 16 12 10 6 14 15 13 16 11 10 4 9 10 11 13 16 7 5 1 2 12 12 10 6 2 2 12 15 6 8 9 8 9 8 8 9 8 7 9 10 10 12 12 7 10 10 12 12 10 9 10 10 12 10 6 5 7 12 9
19 19 18 15 8 5 5 9 10 8 7 4 6 7 6 6 8 6 9 3 3 3 5 8 7 10 13 14 11 14 14 11 9 12 13 13 14 12 9 7 9 8 7 9 11 13 7 10 9 8 13 3 1 5 8 7 12 8 8 10 9 10 9 9 9 9 6 7 11 11 10 11 10 7 8 10 8 7 8 8 11 11 11 13 12 8 14 13
19 19 17 12 11 8 8 1 9 4 3 5 7 6 8 8 8 10 8 4 10 8 9 8 9 9 13 13 11 15 13 11 12 13 13 12 12 13 12 10 10 9 10 10 11 9 10 10 10 12 10 10 8 9 10 11 9 9 9 10 10 6 5 8 7 8 8 6 7 10 11 8 11 7 5 5 10 9 1 7 9 9 8 5 5 8 12 11
21 19 21 15 12 10 14 14 9 7 7 7 6 7 9 8 11 10 11 7 1 3 4 4 7 11 11 12 12 15 15 11 14 14 14 14 12 13 15 14 11 10 7 10 10 11 9 10 14 12 10 10 11 10 9 10 11 12 11 10 9 7 7 7 9 5 8 10 2 6 5 9 4 5 13 5 2 8 6 7 8 4 4 4 4 8 5 8
22 20 10 4 8 10 6 6 4 3 3 5 7 8 10 10 10 8 13 12 6 5 1 9 6 8 10 9 10 12 14 13 14 13 16 12 14 12 13 17 15 14 12 6 11 10 8 12 13 14 10 12 13 13 7 7 11 12 12 10 8 7 6 7 8 8 8 6 9 10 5 6 11 6 5 13 12 10 11 9 8 9 8 7 9 13 12 12
25 19 9 7 6 8 10 7 5 4 5 6 9 10 11 11 9 10 11 11 12 4 7 5 8 10 11 11 10 15 12 11 15 14 14 14 13 12 12 13 17 13 11 8 8 6 13 8 10 17 10 14 14 15 12 9 9 10 11 10 11 7 7 9 2 5 4 3 4 7 4 4 2 7 5 7 8 11 12 14 15 12 16 14 16 15 13 12
17 3 6 6 7 5 7 6 5 5 7 8 10 10 12 10 9 10 8 8 11 13 10 11 10 11 9 10 8 10 18 13 17 12 12 15 14 14 14 12 14 15 10 9 4 8 7 9 8 17 15 10 14 13 12 9 9 7 10 12 9 7 9 6 4 4 5 3 5 2 8 5 11 9 6 7 8 7 8 9 8 9 11 13 11 12 11 11
6 2 6 6 4 1 3 5 5 7 7 10 10 11 10 10 14 12 6 6 8 8 11 11 9 10 10 9 9 14 12 14 11 14 11 14 13 15 15 13 13 16 16 8 7 6 7 6 6 8 16 11 11 11 13 13 10 4 9 9 6 3 8 4 4 5 6 8 6 7 6 9 9 6 11 11 7 7 6 8 9 8 9 9 9 11 11 12
6 5 5 1 5 2 3 6 8 6 8 10 11 12 9 13 11 16 6 5 4 8 10 9 7 9 9 11 10 11 12 13 9 12 12 13 5 10 15 12 17 14 16 13 7 6 7 7 8 12 11 13 11 8 11 11 11 12 7 5 9 6 9 6 3 6 4 7 5 7 7 9 7 4 11 13 11 10 10 10 9 8 9 11 12 12 12 14
7 5 5 4 3 2 3 6 7 8 9 11 10 11 12 13 12 13 9 7 8 10 11 10 11 8 9 9 11 7 4 10 9 11 12 6 10 1 11 10 12 14 12 14 12 6 6 7 7 7 11 10 11 11 11 11 12 15 10 9 8 8 6 5 5 6 6 6 6 6 9 6 3 3 11 11 13 12 11 9 9 9 9 9 9 11 12 13
7 5 2 4 3 2 4 7 7 8 10 11 11 11 8 14 13 10 8 5 8 9 7 12 12 7 7 9 10 8 11 12 7 1 8 6 8 2 8 4 6 14 11 10 9 10 3 4 7 2 11 6 10 10 13 11 10 12 12 10 8 8 3 6 4 9 7 5 5 5 7 4 5 6 4 9 13 11 11 10 8 8 10 9 11 11 10 11
4 5 4 2 4 5 5 6 8 10 11 10 12 12 12 12 9 11 13 11 10 8 11 9 7 8 7 10 11 8 4 9 5 4 8 7 7 6 5 7 9 6 9 9 10 7 5 7 8 5 9 9 9 11 17 18 14 12 11 12 12 9 10 7 8 5 9 7 6 4 5 6 5 5 6 13 13 10 13 13 13 14 9 11 10 11 11 12
8 4 3 4 3 5 5 7 8 8 8 11 10 10 10 6 7 9 11 9 10 9 9 10 8 9 9 7 8 9 9 9 7 11 7 7 7 11 0 9 8 7 8 7 10 3 1 3 7 9 9 9 10 5 7 5 5 10 9 12 13 10 9 9 8 8 8 9 8 7 5 3 4 5 5 9 10 12 13 11 11 13 11 10 10 10 11 11
3 5 4 1 2 5 6 7 8 7 9 9 9 7 8 5 7 11 11 9 9 10 10 8 9 10 11 10 8 9 6 7 9 7 7 5 5 9 5 7 5 7 11 5 8 4 4 3 7 10 9 8 8 8 5 8 9 11 10 9 9 11 8 10 8 6 4 5 7 6 7 4 4 2 3 6 8 10 9 11 11 10 10 10 10 10 11 11
3 3 4 5 3 4 5 4 5 6 8 12 6 8 8 9 8 11 12 8 8 9 12 8 9 10 10 7 7 8 6 5 7 9 6 16 5 7 13 11 6 5 4 6 6 6 4 3 5 4 5 4 12 9 9 7 8 11 10 10 13 10 13 11 5 5 4 7 8 4 8 3 2 1 4 5 9 9 10 10 10 9 9 8 10 10 9 10
4 2 3 4 1 4 5 5 5 4 7 7 6 10 10 7 7 8 8 10 10 7 3 6 8 4 8 7 10 9 10 8 5 7 8 6 8 7 8 9 8 9 3 8 4 7 4 2 3 5 6 7 6 6 3 4 10 10 11 13 7 12 13 8 8 4 9 7 9 7 1 6 6 3 8 7 7 7 9 10 10 10 12 10 11 11 11 9
3 3 4 1 3 3 2 3 4 7 4 6 5 5 6 8 3 5 10 3 4 5 6 7 5 6 10 9 9 10 11 9 9 4 5 6 4 4 3 6 7 8 9 8 7 8 3 4 8 8 7 5 2 6 10 13 9 10 14 11 11 9 11 12 10 7 9 7 10 10 4 10 9 8 8 5 10 8 11 10 10 11 11 11 11 10 10 11
3 3 4 4 3 2 3 5 7 5 3 4 3 1 6 7 5 4 3 7 5 7 5 6 7 5 7 9 9 10 11 12 10 10 7 9 4 4 3 3 6 12 7 7 8 4 3 3 6 7 7 3 4 4 9 14 16 11 9 8 6 6 6 7 7 9 8 3 6 9 13 12 11 11 10 8 6 8 9 11 10 10 10 11 10 10 10 11
2 3 3 4 5 5 4 5 8 5 7 4 1 4 5 4 5 3 4 5 2 4 6 4 8 9 9 8 8 7 8 10 9 7 7 6 2 5 6 9 6 6 8 8 9 7 7 5 9 8 7 6 3 5 5 7 12 11 8 5 2 2 5 6 1 1 2 4 1 4 6 11 10 11 11 10 7 7 7 8 9 10 10 11 11 13 12 11
3 2 4 3 1 5 6 5 6 6 8 11 3 6 3 2 3 3 2 4 5 1 6 0 7 5 7 7 6 7 5 9 5 2 3 6 7 4 6 7 7 11 7 6 8 4 4 3 10 10 7 5 4 3 6 4 6 6 6 8 8 6 9 7 8 8 5 9 12 14 14 11 7 9 8 8 6 6 9 7 7 6 4 9 10 11 11 10
5 5 3 2 4 4 5 4 4 5 7 12 3 10 7 5 5 4 5 4 2 3 7 1 3 2 2 4 4 1 7 7 6 1 3 5 2 5 1 3 4 10 9 8 6 6 8 2 4 6 7 5 6 3 1 3 4 5 7 7 11 8 8 10 9 11 9 10 11 14 14 11 7 8 7 5 5 5 9 12 9 8 6 8 9 10 9 10
4 4 3 5 4 6 2 7 5 6 6 8 5 8 7 7 3 3 9 8 7 5 6 4 6 2 7 8 9 9 7 6 5 5 2 4 3 1 5 4 5 4 9 7 6 6 5 2 6 6 5 5 7 8 6 4 2 6 8 8 6 9 7 8 7 8 8 6 9 12 7 5 6 9 11 9 8 8 10 10 10 10 12 11 8 9 9 10
3 2 3 5 3 3 3 6 5 4 6 4 2 3 5 7 9 4 2 8 10 10 9 8 5 4 6 7 9 9 7 5 4 4 4 3 4 2 2 2 3 3 4 5 3 3 3 4 5 5 6 5 6 7 7 4 1 6 9 10 5 6 5 5 8 10 9 8 4 3 6 7 8 9 11 11 10 10 10 10 9 13 16 17 16 12 12 10
Wind_Direction
354 353 351 347 342 334 328 318 313 309 305 301 299 299 299 299 300 300 302 301 300 303 304 307 306 304 301 303 302 302 306 285 287 267 239 242 281 78 102 79 187 174 205 208 207 183 193 200 204 200 207 212 212 230 211 205 239 221 225 235 237 242 236 226 236 200 351 51 84 158 127 262 183 180 148 218 193 182 157 131 82 86 100 100 99 111 133 136
354 352 351 348 345 341 334 328 321 312 306 301 299 297 298 296 298 299 299 301 302 301 306 307 306 305 306 304 305 303 298 285 277 265 250 202 146 143 131 154 185 182 201 211 199 188 193 197 199 192 209 213 195 227 203 204 215 223 224 232 241 226 249 282 216 314 151 203 97 77 204 273 64 180 171 205 184 166 172 149 131 109 116 123 125 127 133 146
352 350 349 349 347 346 342 333 323 317 310 303 298 297 297 297 297 298 299 301 300 303 303 304 306 305 307 304 301 300 285 288 270 258 252 184 149 153 150 173 190 182 199 197 201 193 202 195 197 194 210 224 188 222 196 203 202 222 240 226 233 252 264 88 351 359 295 24 137 218 113 264 114 216 137 189 115 191 179 150 141 136 136 131 133 138 142 148
351 350 348 348 347 347 347 338 329 320 314 305 299 295 294 297 294 296 298 298 300 302 304 301 304 308 307 305 300 298 286 282 266 137 79 127 149 155 163 175 193 194 209 225 199 207 209 205 203 202 209 229 187 230 183 203 205 198 234 239 235 224 251 197 219 246 253 268 334 253 54 238 171 324 184 165 150 229 298 144 172 164 156 137 141 143 150 146
351 350 348 347 348 347 345 343 335 326 315 308 301 298 298 294 292 296 300 298 298 300 302 305 305 306 305 302 297 282 287 277 96 83 88 132 146 146 155 184 190 201 211 232 213 215 211 213 202 205 228 214 224 207 215 211 211 230 226 238 253 301 303 321 184 172 259 248 278 273 226 231 82 213 230 175 174 177 201 180 161 150 148 142 141 151 150 149
348 348 348 346 346 348 345 343 342 331 321 313 305 299 295 293 293 297 297 296 296 300 302 303 305 304 303 304 289 276 270 297 82 79 112 137 140 150 165 181 199 214 211 229 218 208 218 218 210 207 214 232 220 216 202 229 185 239 228 237 249 268 281 211 202 128 225 220 216 227 232 7 238 217 253 230 209 159 170 152 101 136 131 139 140 149 154 162
348 347 347 346 345 345 345 343 341 335 326 315 310 302 299 292 294 298 295 295 297 298 303 303 304 303 306 295 268 260 247 281 190 114 126 150 145 156 169 188 199 222 224 220 209 205 209 215 213 209 221 225 234 223 217 219 209 232 246 215 233 243 236 280 238 165 215 244 243 245 1 243 215 241 176 230 109 148 108 131 134 123 120 151 151 155 162 169
347 347 346 346 345 344 345 342 339 338 331 321 311 308 298 295 293 293 294 294 299 297 300 301 304 305 318 299 274 229 235 247 102 119 134 135 157 162 173 189 196 208 219 216 201 209 200 217 207 214 225 223 218 226 217 224 218 223 238 250 243 225 227 244 244 238 224 224 237 252 244 231 224 253 138 209 133 165 157 139 141 127 143 181 155 159 163 171
345 345 346 345 345 345 343 342 338 338 333 325 315 308 304 296 292 291 295 294 294 296 298 300 302 306 302 281 283 289 248 72 93 121 141 154 162 168 180 180 193 202 213 216 214 216 209 211 219 218 219 227 240 231 221 226 215 225 240 240 227 234 236 231 233 238 229 231 222 226 235 235 234 272 254 226 145 150 147 179 143 138 171 159 165 157 162 172
344 344 345 345 345 344 343 341 337 336 335 329 319 311 305 298 294 290 290 290 289 291 296 301 300 303 288 268 276 264 92 186 116 130 150 164 164 167 191 180 183 205 212 211 209 222 214 208 225 208 253 263 247 231 231 217 243 212 224 239 243 226 228 220 235 225 220 231 216 228 222 226 215 203 220 229 130 160 184 176 139 137 163 180 165 162 164 171
344 344 344 345 344 343 342 340 337 333 334 331 322 313 305 300 294 292 288 288 286 287 293 297 304 302 279 272 283 274 92 268 86 123 157 170 166 178 190 186 190 206 222 209 223 221 228 252 217 245 235 248 250 240 238 208 237 273 269 235 233 236 235 239 224 235 222 217 222 225 230 230 200 204 242 204 153 183 189 173 159 167 164 193 178 159 162 174
343 343 344 342 344 342 340 339 336 333 331 332 325 313 306 299 294 287 286 282 286 286 289 295 290 279 276 273 259 272 125 98 226 135 153 178 184 186 197 203 195 221 216 217 219 217 238 234 246 238 211 203 248 240 232 230 230 250 242 254 236 232 239 230 230 219 223 228 206 213 237 227 192 222 227 152 162 178 191 186 187 174 167 179 158 161 166 177
342 342 343 342 340 342 339 338 335 333 330 328 328 316 306 299 292 288 283 280 269 269 273 284 287 268 282 276 247 234 213 162 171 192 161 190 190 199 205 215 210 224 227 240 213 225 226 238 255 230 247 289 242 221 7 209 233 240 232 244 242 226 229 221 221 224 211 221 208 193 224 220 211 215 228 160 197 193 190 200 196 178 168 167 166 159 168 176
342 341 342 341 339 339 339 337 334 332 328 325 324 318 305 298 290 286 280 275 283 277 271 266 269 265 263 264 284 202 214 203 168 202 189 184 199 186 210 218 222 234 263 265 271 214 212 219 241 248 274 243 235 119 240 206 219 228 229 231 245 239 226 203 211 205 219 196 194 191 234 226 211 204 216 165 188 188 200 200 194 181 178 161 166 166 172 177
340 340 339 339 339 336 337 335 333 329 327 322 319 316 307 292 281 277 275 273 251 257 275 276 244 260 229 255 234 90 48 256 210 205 195 184 201 185 203 197 211 215 211 230 239 252 197 209 226 238 232 233 278 272 220 222 206 225 227 220 223 243 240 212 191 199 204 177 188 203 238 247 242 195 202 167 185 189 203 201 195 186 175 160 165 175 178 176
339 338 336 337 336 335 334 334 331 328 324 323 316 312 299 290 277 262 266 267 308 306 242 243 226 236 293 273 122 129 177 206 207 203 188 203 197 213 185 192 197 202 203 206 252 192 214 207 218 220 226 193 234 231 218 214 210 210 229 223 218 217 242 212 163 189 201 194 185 211 230 225 247 242 168 158 190 198 208 196 200 188 173 169 173 179 185 172
337 336 335 334 335 334 332 331 329 327 324 320 317 302 296 289 266 263 252 254 249 224 239 257 257 204 259 64 136 215 207 199 186 187 179 211 204 212 162 184 193 190 203 183 211 187 190 219 209 254 271 234 210 229 229 217 214 210 207 237 229 217 219 235 163 198 195 220 191 200 233 243 338 89 139 171 199 198 214 201 200 194 175 173 178 179 191 182
336 335 334 332 331 332 330 328 328 325 324 318 307 305 296 301 260 257 241 240 224 225 228 252 279 274 236 263 232 219 150 155 183 181 181 186 223 174 197 188 184 189 190 181 188 205 177 213 202 228 202 229 208 214 228 213 220 208 201 217 230 230 215 230 177 176 212 198 216 191 219 242 183 183 164 198 198 203 213 203 203 193 178 182 189 184 191 188
335 333 332 331 329 329 328 327 326 326 323 318 288 278 268 256 235 232 250 192 202 186 209 181 203 204 26 193 208 53 191 115 154 171 178 186 194 203 194 201 185 180 188 193 166 215 167 228 207 233 212 204 215 216 219 235 211 221 206 213 229 214 204 236 204 165 195 182 216 216 212 215 237 202 173 182 201 201 218 207 194 196 191 183 195 186 189 192
335 332 331 329 328 326 326 325 324 323 330 314 305 210 230 232 194 192 210 213 228 256 285 274 199 264 274 236 234 205 94 166 188 199 172 187 187 187 194 189 185 196 189 208 156 218 169 220 209 216 226 203 217 227 234 327 323 330 261 212 219 225 216 217 231 145 188 214 205 223 225 230 219 231 181 191 196 211 218 205 186 197 197 196 193 191 189 192
331 332 329 328 326 324 322 322 321 319 342 306 289 278 271 320 321 359 283 245 229 243 259 263 253 254 257 304 240 166 196 181 221 180 187 166 201 182 181 192 181 202 198 206 167 193 208 225 223 217 233 216 208 224 241 278 286 270 271 249 224 223 230 188 208 133 183 241 210 219 232 224 233 237 195 179 192 207 213 205 187 205 202 200 196 191 195 191
331 329 329 326 324 322 318 317 315 312 299 275 262 256 277 326 355 353 314 299 290 269 246 242 246 248 253 254 236 261 225 207 197 192 166 189 177 208 154 204 186 205 187 209 166 180 217 228 227 221 223 302 227 239 262 271 251 247 262 233 243 213 245 182 166 131 173 203 241 222 221 232 226 235 171 181 198 210 214 212 195 205 204 200 192 191 195 191
330 329 327 325 322 319 317 311 308 307 292 239 238 242 253 319 332 329 297 285 278 265 248 242 231 233 241 218 206 194 222 218 190 183 168 201 175 224 160 207 189 213 186 210 198 192 216 222 232 224 146 205 208 232 248 239 243 240 231 248 226 222 221 177 193 197 202 213 225 222 224 231 228 186 167 190 204 211 213 210 202 207 204 199 194 191 196 200
329 328 325 324 323 321 315 316 304 279 232 238 248 258 294 310 309 319 304 281 294 285 268 233 230 233 224 213 182 197 213 204 232 175 164 199 199 207 200 210 195 218 200 195 223 221 225 204 197 204 143 201 220 214 227 227 222 228 243 239 241 228 214 237 175 209 190 211 248 274 235 228 187 194 186 189 204 211 202 205 203 203 211 193 183 195 205 208
328 327 325 323 323 320 317 315 287 223 216 226 247 256 258 271 299 325 305 286 241 245 208 208 227 222 214 189 157 204 200 229 228 185 168 199 201 196 215 203 230 205 215 188 217 240 248 115 59 97 178 210 219 214 214 225 230 216 227 247 247 236 228 215 135 189 199 215 204 228 232 222 182 202 200 187 193 207 196 201 204 200 204 185 187 194 201 214
326 325 325 323 323 324 308 288 183 360 276 263 273 360 187 272 321 321 284 268 284 123 149 201 163 169 150 176 168 206 192 226 206 205 166 198 214 215 180 222 218 210 211 212 207 232 243 118 186 211 219 216 215 228 203 217 238 234 201 224 245 273 245 205 189 209 222 232 180 207 240 211 183 199 200 184 190 206 194 204 202 196 201 197 200 197 201 200
324 323 323 323 323 328 308 339 354 297 273 246 124 325 301 298 343 282 259 244 258 164 180 95 203 108 242 172 183 187 201 203 182 197 171 185 216 200 238 207 185 261 254 212 216 210 239 161 218 192 209 215 218 223 211 206 232 236 202 189 231 244 246 231 237 214 243 254 311 210 228 238 185 201 191 180 196 199 195 182 203 200 201 204 194 207 202 168
323 321 320 320 317 312 289 311 305 275 265 11 300 360 295 335 310 235 250 280 245 157 179 160 19 128 233 158 191 192 317 141 177 178 185 172 223 173 234 222 206 207 214 224 220 188 209 208 208 196 210 212 218 224 205 202 227 239 246 213 211 225 222 226 231 239 242 247 218 209 220 230 221 202 184 175 196 198 193 186 199 194 210 209 218 210 202 102
320 319 318 315 313 290 270 250 284 273 285 359 332 312 334 320 266 253 261 264 119 200 23 155 148 182 204 169 194 210 166 165 209 152 179 177 210 212 206 244 236 218 199 218 237 109 204 219 197 207 201 212 224 218 201 193 222 192 237 220 221 214 223 223 232 236 216 236 245 220 203 231 195 206 164 177 211 200 192 178 180 190 200 192 201 228 84 102
318 315 314 316 309 259 214 227 241 256 291 308 314 302 300 267 231 227 216 250 74 216 172 98 203 175 181 178 195 208 219 185 259 144 175 183 187 227 250 303 241 226 210 204 245 251 50 92 219 203 204 225 250 127 237 182 220 49 227 211 215 220 223 223 247 240 229 228 235 231 212 221 223 154 199 205 207 205 183 165 164 172 201 170 196 244 80 106
314 311 308 308 276 307 317 250 236 232 253 309 318 293 267 228 231 236 220 266 254 181 164 167 173 152 177 188 190 191 221 192 154 173 167 183 186 206 219 202 251 243 220 218 226 234 216 206 208 218 244 288 284 207 209 250 223 195 220 223 194 206 216 217 216 228 227 239 238 222 216 198 246 171 223 185 167 149 189 181 159 183 161 184 191 194 127 164
311 304 300 288 264 282 249 252 56 343 16 328 307 249 214 216 216 230 230 133 265 147 213 187 166 189 179 198 205 176 204 183 174 187 182 183 186 191 204 228 176 211 211 208 214 206 221 202 200 212 215 250 206 241 185 212 227 224 223 225 219 199 228 214 208 213 223 235 227 229 199 201 225 99 62 56 89 76 120 148 168 179 170 146 139 144 138 157
309 303 301 272 244 228 240 267 305 317 312 300 287 226 215 229 224 212 237 213 210 95 147 235 182 200 191 189 210 180 201 206 167 193 197 185 208 193 204 227 187 218 225 189 227 186 214 219 195 211 192 203 240 223 169 199 204 214 223 216 215 213 201 234 219 217 226 219 159 229 200 240 157 88 132 120 62 121 129 132 158 142 129 158 146 94 126 153
306 306 296 251 207 218 242 244 255 293 276 254 238 212 232 231 231 217 240 226 240 159 237 218 193 208 210 212 200 193 186 216 171 194 196 191 205 198 203 214 216 196 252 197 224 189 205 195 206 207 201 176 220 243 213 208 190 215 228 229 227 232 216 225 236 223 224 235 173 198 200 234 223 163 140 140 151 138 136 130 135 150 155 157 132 156 167 155
307 296 258 238 228 230 228 242 240 226 245 226 215 219 215 224 232 224 223 237 245 179 228 194 237 222 208 223 219 196 219 193 197 194 196 208 197 212 201 203 211 233 201 240 206 229 220 233 191 200 223 175 213 223 255 219 210 209 225 227 231 217 205 252 52 329 357 264 186 194 221 202 251 120 143 138 138 147 143 148 148 168 140 149 149 153 153 148
301 221 190 205 219 185 204 216 207 203 222 214 216 215 223 213 219 222 249 247 252 242 211 206 226 229 225 223 208 223 186 248 177 221 197 210 202 211 202 202 206 206 226 220 180 229 212 228 206 184 211 213 205 212 222 246 237 169 219 225 226 227 241 242 182 183 132 267 256 188 213 173 133 151 173 170 151 121 117 111 114 117 122 132 128 127 129 124
259 223 211 208 189 109 214 211 180 200 221 224 220 225 225 226 238 249 231 242 271 266 245 245 206 228 225 221 223 215 190 213 213 205 212 196 213 211 203 205 204 194 229 242 205 252 263 233 161 184 186 213 230 224 234 211 248 141 243 237 246 306 303 272 270 157 221 234 228 213 206 219 195 194 170 173 176 127 125 105 85 99 94 79 95 105 105 105
293 244 277 204 8 341 237 196 187 205 221 219 227 246 231 240 222 247 287 302 287 245 261 236 237 237 222 229 218 207 195 205 190 207 219 195 239 183 212 214 186 214 201 208 265 164 241 267 224 195 219 202 205 245 243 246 238 253 234 198 246 184 217 223 257 245 229 222 244 211 204 245 229 190 172 173 177 161 128 108 120 96 97 111 105 103 110 107
266 266 205 46 14 13 194 169 199 210 208 220 226 224 239 258 251 236 221 232 289 278 233 237 266 198 243 227 250 199 214 227 182 224 230 176 231 286 254 215 180 200 205 208 200 221 187 244 228 195 233 189 197 206 232 213 214 241 267 262 218 260 251 233 211 251 235 237 219 235 214 227 274 211 163 208 155 128 134 145 121 124 114 111 116 113 116 113
246 240 153 41 76 43 133 184 203 211 219 221 220 234 227 236 244 250 262 268 242 242 248 266 230 262 243 253 234 237 188 244 207 234 311 210 195 260 275 227 250 170 214 214 243 210 208 217 249 190 234 227 211 198 225 223 215 203 218 239 222 222 243 257 230 240 235 244 235 231 226 165 59 0 215 87 107 127 128 132 129 118 128 124 113 118 117 114
282 290 87 83 78 121 175 197 215 208 218 228 237 248 232 234 240 238 234 226 258 263 287 273 257 242 243 242 221 238 232 245 252 230 219 330 269 181 190 252 217 198 186 210 231 221 228 196 230 241 237 218 245 214 217 225 225 219 217 223 233 218 211 218 229 234 253 237 242 225 220 73 64 333 113 126 129 151 151 167 155 148 143 116 115 112 109 97
272 257 66 73 134 199 258 224 222 228 230 224 226 219 242 26 272 267 252 223 228 256 219 271 267 270 263 269 275 247 237 236 201 209 242 223 346 340 111 319 227 192 179 202 211 69 306 278 250 223 218 234 238 17 296 256 282 271 234 219 226 243 233 236 243 214 222 236 260 248 264 111 359 352 92 140 144 151 134 134 124 120 129 122 115 113 114 115
334 34 73 4 136 241 254 252 242 240 233 235 246 249 267 209 252 253 255 224 229 226 245 210 236 241 236 266 265 266 256 250 251 239 137 268 154 224 231 268 297 193 213 115 105 96 138 233 238 255 258 298 290 271 303 279 271 253 250 266 230 230 244 247 258 357 315 233 232 237 242 105 92 31 68 140 159 125 131 127 122 118 121 123 122 121 122 125
355 13 125 85 178 243 265 280 266 239 238 249 261 276 254 256 234 233 238 235 240 206 217 235 246 237 271 246 270 274 255 265 242 263 212 146 156 155 169 226 241 237 196 174 211 120 209 160 276 261 258 257 266 215 232 224 244 243 244 228 242 243 239 256 223 185 242 249 274 253 249 136 97 110 115 154 138 126 123 126 114 117 119 126 129 127 128 133
292 238 275 59 309 221 290 328 315 313 307 290 262 259 245 229 248 283 282 261 234 263 303 257 262 282 245 251 257 253 267 273 280 244 269 259 127 180 148 215 205 260 214 50 91 133 233 170 215 252 250 248 243 253 266 260 237 229 238 247 270 252 251 255 245 237 243 236 259 252 144 91 114 145 124 142 117 127 120 100 117 142 138 142 131 135 131 129
340 332 18 116 38 12 17 2 324 308 297 280 261 259 250 253 251 248 247 237 324 272 260 276 275 257 262 260 252 250 251 231 250 267 231 235 147 154 139 194 207 218 88 116 148 198 207 164 219 225 244 242 209 280 298 311 300 263 235 229 246 251 251 258 267 255 248 233 234 237 206 150 138 141 123 168 149 174 129 124 142 127 123 118 124 131 134 134
328 7 351 356 309 57 333 27 357 326 308 349 277 5 269 252 222 230 209 249 185 270 244 244 273 257 252 254 257 256 247 250 219 243 260 252 154 97 145 105 89 95 108 144 176 140 183 193 166 165 175 195 156 257 295 323 330 266 235 216 235 231 214 245 249 252 277 314 246 347 150 140 139 137 136 134 89 119 122 136 136 123 127 133 130 121 119 120
319 56 354 31 324 15 335 23 351 9 2 270 233 305 279 263 221 221 243 249 213 226 256 216 251 248 256 248 241 246 244 256 245 241 241 263 75 163 171 160 162 150 175 171 166 206 206 205 162 162 148 134 85 91 58 360 329 4 21 32 28 205 196 192 65 337 283 255 216 31 35 112 126 123 110 84 123 100 118 119 126 124 127 134 143 138 141 138
23 68 57 287 302 43 30 22 358 28 37 357 52 17 43 23 85 69 334 267 228 39 282 340 279 281 254 251 256 241 249 232 221 13 358 291 239 207 210 142 128 153 206 172 188 188 229 215 164 204 178 170 154 95 53 63 347 351 7 2 17 62 72 78 65 49 80 97 106 117 107 79 94 83 71 67 83 88 95 100 104 102 176 129 145 132 130 130
42 332 44 57 64 51 46 47 44 51 57 14 21 8 352 39 43 76 56 40 50 3 340 219 269 10 313 259 243 254 52 39 16 173 35 324 337 321 82 234 202 180 192 196 187 143 247 105 168 192 212 202 193 203 184 62 357 328 309 347 348 2 59 49 55 28 81 94 101 100 97 93 65 90 101 96 72 86 76 58 53 117 204 154 127 117 116 120
17 356 339 314 51 8 7 44 18 58 59 36 37 359 349 28 26 40 67 51 59 30 16 6 329 34 54 62 56 56 35 28 35 31 344 360 295 103 304 153 316 199 192 166 190 145 221 140 184 185 227 216 209 210 201 212 351 311 304 300 331 354 18 22 43 14 33 74 137 110 93 100 127 120 116 97 94 87 78 62 64 58 67 65 87 106 115 114
301 153 230 299 37 2 358 100 100 63 58 38 35 335 7 347 352 339 86 25 31 23 18 3 346 288 68 45 38 24 8 356 2 345 347 308 302 283 344 357 291 292 232 163 292 217 229 163 191 187 223 236 182 208 194 159 251 271 256 248 107 75 73 51 40 27 22 352 18 120 78 97 114 119 108 90 80 65 60 69 54 59 46 42 43 55 69 74